| time (UTC) | temp F | wind direction | speed knots | gust knots | rain 1hr in | rain 24hr in | rain mn in | humidity % | barometer mb |
| 20260906162003 | 74 | 174 | 2.6 | 5.2 | 0.00 | 0.00 | 0.00 | 73 | 1020.6 |
| 20260906160003 | 73 | 173 | 1.7 | 7.0 | 0.00 | 0.00 | 0.00 | 75 | 1020.6 |
| 20260906155003 | 72 | 139 | 4.3 | 7.8 | 0.00 | 0.00 | 0.00 | 76 | 1020.6 |
| 20260906154004 | 72 | 138 | 5.2 | 10.4 | 0.00 | 0.00 | 0.00 | 75 | 1021.2 |
| 20260906153003 | 70 | 130 | 4.3 | 10.4 | 0.00 | 0.00 | 0.00 | 79 | 1021.2 |
| 20260906152003 | 68 | 156 | 2.6 | 5.2 | 0.00 | 0.00 | 0.00 | 83 | 1021.2 |
| 20260906151004 | 67 | 207 | 3.5 | 7.0 | 0.00 | 0.00 | 0.00 | 87 | 1020.7 |
| 20260906150003 | 66 | 205 | 2.6 | 6.1 | 0.00 | 0.00 | 0.00 | 90 | 1020.7 |
| 20260906145004 | 65 | 204 | 0.9 | 6.1 | 0.00 | 0.00 | 0.00 | 92 | 1020.7 |
| 20260906144004 | 65 | 175 | 4.3 | 8.7 | 0.00 | 0.00 | 0.00 | 93 | 1020.7 |
| 20260906143003 | 65 | 175 | 3.5 | 7.8 | 0.00 | 0.00 | 0.00 | 93 | 1020.7 |
| 20260906142004 | 65 | 163 | 4.3 | 7.8 | 0.00 | 0.00 | 0.00 | 93 | 1020.7 |
| 20260906140003 | 65 | 181 | 1.7 | 6.1 | 0.00 | 0.00 | 0.00 | 93 | 1020.7 |
| 20260906135004 | 64 | 140 | 0.9 | 7.0 | 0.00 | 0.00 | 0.00 | 93 | 1020.7 |
| 20260906134003 | 64 | 119 | 1.7 | 5.2 | 0.00 | 0.00 | 0.00 | 93 | 1020.8 |
| 20260906133003 | 63 | 141 | 2.6 | 6.1 | 0.00 | 0.00 | 0.00 | 93 | 1020.8 |
| 20260906132003 | 62 | 134 | 1.7 | 4.3 | 0.00 | 0.00 | 0.00 | 93 | 1020.8 |
| 20260906130003 | 61 | 135 | 3.5 | 6.1 | 0.00 | 0.00 | 0.00 | 93 | 1020.8 |
| 20260906125004 | 61 | 165 | 1.7 | 4.3 | 0.00 | 0.00 | 0.00 | 92 | 1020.8 |
| 20260906124004 | 60 | 165 | 2.6 | 2.6 | 0.00 | 0.01 | 0.00 | 92 | 1020.8 |
| 20260906123003 | 60 | 165 | 2.6 | 4.3 | 0.00 | 0.01 | 0.00 | 92 | 1020.8 |
| 20260906122004 | 60 | 165 | 1.7 | 2.6 | 0.00 | 0.01 | 0.00 | 92 | 1019.7 |
| 20260906121004 | 60 | 165 | 0.0 | 0.0 | 0.00 | 0.01 | 0.00 | 92 | 1019.7 |
| 20260906120004 | 60 | 165 | 0.0 | 0.0 | 0.00 | 0.01 | 0.00 | 92 | 1019.7 |
| 20260906115003 | 60 | 165 | 0.0 | 0.0 | 0.00 | 0.01 | 0.00 | 92 | 1019.7 |
| 20260906114003 | 60 | 165 | 0.0 | 4.3 | 0.00 | 0.01 | 0.00 | 92 | 1019.7 |
| 20260906113004 | 60 | 165 | 2.6 | 7.0 | 0.00 | 0.01 | 0.00 | 92 | 1019.7 |
| 20260906112004 | 60 | 160 | 3.5 | 5.2 | 0.00 | 0.01 | 0.00 | 92 | 1019.5 |
| 20260906111003 | 60 | 161 | 3.5 | 5.2 | 0.00 | 0.01 | 0.00 | 92 | 1019.5 |
| 20260906105003 | 60 | 161 | 3.5 | 4.3 | 0.00 | 0.01 | 0.00 | 91 | 1019.5 |
| 20260906104004 | 60 | 161 | 3.5 | 4.3 | 0.00 | 0.01 | 0.00 | 91 | 1019.5 |
| 20260906103003 | 60 | 161 | 2.6 | 5.2 | 0.00 | 0.01 | 0.00 | 91 | 1019.5 |
| 20260906102004 | 60 | 161 | 4.3 | 4.3 | 0.00 | 0.01 | 0.00 | 91 | 1019.6 |
| 20260906101003 | 60 | 161 | 2.6 | 4.3 | 0.00 | 0.01 | 0.00 | 91 | 1019.6 |
| 20260906100003 | 60 | 162 | 4.3 | 5.2 | 0.00 | 0.01 | 0.00 | 91 | 1019.6 |
| 20260906095004 | 60 | 167 | 2.6 | 4.3 | 0.00 | 0.01 | 0.00 | 91 | 1019.6 |
| 20260906094003 | 60 | 167 | 0.0 | 0.0 | 0.00 | 0.01 | 0.00 | 91 | 1019.6 |
| 20260906093003 | 61 | 167 | 0.0 | 0.0 | 0.00 | 0.01 | 0.00 | 91 | 1019.6 |
| 20260906092004 | 61 | 167 | 0.0 | 0.0 | 0.00 | 0.01 | 0.00 | 91 | 1019.2 |
| 20260906091003 | 61 | 167 | 0.9 | 2.6 | 0.00 | 0.01 | 0.00 | 91 | 1019.2 |
| 20260906090003 | 61 | 167 | 1.7 | 4.3 | 0.00 | 0.01 | 0.00 | 91 | 1019.2 |
| 20260906085003 | 61 | 173 | 2.6 | 5.2 | 0.00 | 0.01 | 0.00 | 91 | 1019.2 |
| 20260906084003 | 60 | 134 | 0.0 | 2.6 | 0.00 | 0.01 | 0.00 | 91 | 1019.2 |
| 20260906083004 | 60 | 134 | 3.5 | 5.2 | 0.00 | 0.01 | 0.00 | 91 | 1019.1 |
| 20260906082003 | 61 | 155 | 1.7 | 2.6 | 0.00 | 0.01 | 0.00 | 91 | 1019.1 |
| 20260906081004 | 61 | 155 | 0.9 | 1.7 | 0.00 | 0.01 | 0.00 | 91 | 1019.1 |
| 20260906080003 | 61 | 155 | 0.9 | 2.6 | 0.00 | 0.01 | 0.00 | 91 | 1019.1 |
| 20260906075003 | 61 | 155 | 0.9 | 1.7 | 0.00 | 0.01 | 0.00 | 91 | 1019.1 |
| 20260906074004 | 61 | 155 | 1.7 | 2.6 | 0.00 | 0.01 | 0.00 | 91 | 1019.1 |
| 20260906073003 | 61 | 155 | 0.0 | 0.9 | 0.00 | 0.01 | 0.00 | 91 | 1019.1 |
| 20260906072003 | 61 | 155 | 1.7 | 2.6 | 0.00 | 0.01 | 0.00 | 90 | 1019.1 |
| 20260906071003 | 61 | 155 | 1.7 | 2.6 | 0.00 | 0.01 | 0.00 | 90 | 1019.1 |
| 20260906070004 | 61 | 155 | 0.0 | 0.0 | 0.00 | 0.01 | 0.00 | 90 | 1019.1 |
| 20260906065003 | 61 | 155 | 0.0 | 0.0 | 0.00 | 0.01 | 0.00 | 90 | 1019.1 |
| 20260906064004 | 61 | 262 | 0.0 | 0.0 | 0.00 | 0.01 | 0.00 | 90 | 1019.1 |
| 20260906062003 | 62 | 262 | 0.9 | 1.7 | 0.00 | 0.01 | 0.00 | 89 | 1019.1 |
| 20260906060003 | 63 | 262 | 0.0 | 2.6 | 0.00 | 0.01 | 0.00 | 89 | 1019.1 |
| 20260906055003 | 63 | 261 | 0.9 | 2.6 | 0.00 | 0.01 | 0.00 | 89 | 1019.1 |
| 20260906054004 | 63 | 305 | 0.9 | 1.7 | 0.00 | 0.01 | 0.00 | 89 | 1019.1 |
| 20260906053003 | 63 | 75 | 0.0 | 1.7 | 0.00 | 0.01 | 0.00 | 89 | 1019.1 |
| 20260906052004 | 63 | 75 | 0.9 | 2.6 | 0.00 | 0.01 | 0.00 | 89 | 1019.1 |
| 20260906051003 | 64 | 19 | 0.9 | 2.6 | 0.00 | 0.01 | 0.00 | 88 | 1019.1 |
| 20260906050004 | 64 | 342 | 0.0 | 2.6 | 0.00 | 0.01 | 0.00 | 88 | 1019.1 |
| 20260906045004 | 64 | 295 | 1.7 | 2.6 | 0.00 | 0.01 | 0.01 | 88 | 1019.1 |
| 20260906044003 | 64 | 8 | 0.9 | 2.6 | 0.00 | 0.01 | 0.01 | 88 | 1019.1 |
| 20260906043004 | 64 | 30 | 1.7 | 2.6 | 0.00 | 0.01 | 0.01 | 88 | 1018.7 |
| 20260906042003 | 64 | 8 | 1.7 | 5.2 | 0.00 | 0.01 | 0.01 | 88 | 1018.7 |
| 20260906041003 | 64 | 307 | 2.6 | 4.3 | 0.00 | 0.01 | 0.01 | 87 | 1018.7 |
| 20260906040003 | 64 | 324 | 1.7 | 2.6 | 0.00 | 0.01 | 0.01 | 87 | 1018.7 |
| 20260906035003 | 64 | 302 | 1.7 | 2.6 | 0.00 | 0.01 | 0.01 | 87 | 1017.8 |
| 20260906034003 | 64 | 352 | 1.7 | 4.3 | 0.00 | 0.01 | 0.01 | 87 | 1017.8 |
| 20260906033004 | 64 | 8 | 2.6 | 6.1 | 0.00 | 0.01 | 0.01 | 86 | 1017.8 |
| 20260906032003 | 65 | 9 | 1.7 | 5.2 | 0.00 | 0.01 | 0.01 | 86 | 1017.8 |
| 20260906031004 | 65 | 22 | 2.6 | 7.0 | 0.00 | 0.01 | 0.01 | 86 | 1017.8 |
| 20260906030004 | 65 | 0 | 3.5 | 5.2 | 0.00 | 0.01 | 0.01 | 86 | 1017.8 |
| 20260906025004 | 65 | 342 | 2.6 | 4.3 | 0.00 | 0.01 | 0.01 | 86 | 1017.8 |
| 20260906023004 | 66 | 18 | 2.6 | 6.1 | 0.00 | 0.01 | 0.01 | 85 | 1017.8 |
| 20260906022004 | 66 | 41 | 3.5 | 6.1 | 0.00 | 0.01 | 0.01 | 85 | 1017.8 |
| 20260906021004 | 66 | 36 | 2.6 | 5.2 | 0.00 | 0.01 | 0.01 | 85 | 1017.8 |
| 20260906020003 | 67 | 10 | 2.6 | 4.3 | 0.00 | 0.01 | 0.01 | 84 | 1017.8 |
| 20260906015004 | 67 | 31 | 0.9 | 5.2 | 0.00 | 0.01 | 0.01 | 83 | 1017.8 |
| 20260906014003 | 67 | 2 | 2.6 | 4.3 | 0.00 | 0.01 | 0.01 | 82 | 1017.8 |
| 20260906013004 | 68 | 24 | 1.7 | 4.3 | 0.00 | 0.01 | 0.01 | 82 | 1017.8 |
| 20260906012004 | 68 | 14 | 2.6 | 4.3 | 0.00 | 0.01 | 0.01 | 81 | 1017.7 |
| 20260906010004 | 69 | 23 | 2.6 | 6.1 | 0.00 | 0.01 | 0.01 | 80 | 1017.7 |
| 20260906005004 | 70 | 23 | 2.6 | 8.7 | 0.00 | 0.01 | 0.01 | 79 | 1017.7 |
| 20260906004004 | 70 | 13 | 4.3 | 8.7 | 0.00 | 0.01 | 0.01 | 79 | 1017.7 |
| 20260906002004 | 71 | 20 | 4.3 | 10.4 | 0.00 | 0.01 | 0.01 | 77 | 1017.7 |
| 20260905235004 | 73 | 25 | 4.3 | 8.7 | 0.00 | 0.01 | 0.01 | 76 | 1017.7 |
| 20260905234004 | 73 | 4 | 5.2 | 8.7 | 0.00 | 0.01 | 0.01 | 76 | 1017.7 |
| 20260905232003 | 74 | 18 | 4.3 | 10.4 | 0.00 | 0.01 | 0.01 | 77 | 1017.7 |
| 20260905231004 | 74 | 0 | 2.6 | 10.4 | 0.00 | 0.01 | 0.01 | 77 | 1017.7 |
| 20260905230003 | 75 | 18 | 5.2 | 11.3 | 0.00 | 0.01 | 0.01 | 77 | 1017.7 |
| 20260905225003 | 75 | 8 | 1.7 | 8.7 | 0.00 | 0.01 | 0.01 | 77 | 1017.7 |
| 20260905224003 | 75 | 29 | 4.3 | 10.4 | 0.00 | 0.01 | 0.01 | 77 | 1017.7 |
| 20260905223004 | 75 | 5 | 3.5 | 10.4 | 0.00 | 0.01 | 0.01 | 77 | 1017.7 |
| 20260905222004 | 76 | 5 | 4.3 | 8.7 | 0.00 | 0.01 | 0.01 | 77 | 1017.7 |
| 20260905220003 | 76 | 17 | 5.2 | 10.4 | 0.00 | 0.01 | 0.01 | 76 | 1017.7 |
| 20260905215003 | 76 | 44 | 2.6 | 10.4 | 0.00 | 0.01 | 0.01 | 77 | 1017.7 |
| 20260905214003 | 76 | 295 | 3.5 | 5.2 | 0.00 | 0.01 | 0.01 | 76 | 1017.7 |
| 20260905212004 | 77 | 304 | 3.5 | 7.0 | 0.00 | 0.01 | 0.01 | 76 | 1017.7 |
| 20260905211004 | 76 | 308 | 3.5 | 7.0 | 0.00 | 0.01 | 0.01 | 77 | 1017.7 |
| 20260905210003 | 77 | 329 | 4.3 | 8.7 | 0.00 | 0.01 | 0.01 | 76 | 1018.0 |
| 20260905205003 | 77 | 319 | 4.3 | 8.7 | 0.00 | 0.01 | 0.01 | 76 | 1018.0 |
| 20260905204004 | 77 | 0 | 5.2 | 10.4 | 0.00 | 0.01 | 0.01 | 76 | 1018.1 |
| 20260905203003 | 77 | 29 | 7.0 | 10.4 | 0.00 | 0.01 | 0.01 | 76 | 1018.1 |
| 20260905202004 | 77 | 298 | 2.6 | 7.8 | 0.00 | 0.01 | 0.01 | 77 | 1018.1 |
| 20260905201003 | 76 | 323 | 2.6 | 7.0 | 0.00 | 0.01 | 0.01 | 76 | 1018.1 |
| 20260905200004 | 76 | 304 | 4.3 | 7.0 | 0.00 | 0.01 | 0.01 | 77 | 1018.0 |
| 20260905195004 | 76 | 268 | 3.5 | 7.0 | 0.00 | 0.01 | 0.01 | 78 | 1018.0 |
| 20260905194004 | 76 | 270 | 4.3 | 7.8 | 0.00 | 0.01 | 0.01 | 78 | 1018.0 |
| 20260905193004 | 76 | 355 | 1.7 | 7.0 | 0.00 | 0.01 | 0.01 | 78 | 1018.0 |
| 20260905191004 | 75 | 271 | 2.6 | 7.8 | 0.00 | 0.01 | 0.01 | 79 | 1018.8 |
| 20260905190004 | 75 | 262 | 1.7 | 4.3 | 0.00 | 0.01 | 0.01 | 79 | 1018.8 |
| 20260905185004 | 74 | 229 | 0.0 | 2.6 | 0.00 | 0.01 | 0.01 | 78 | 1018.8 |
| 20260905184004 | 74 | 223 | 0.9 | 4.3 | 0.00 | 0.01 | 0.01 | 80 | 1018.8 |
| 20260905183004 | 74 | 251 | 2.6 | 2.6 | 0.00 | 0.01 | 0.01 | 81 | 1018.8 |
| 20260905182003 | 74 | 103 | 0.9 | 2.6 | 0.00 | 0.01 | 0.01 | 80 | 1018.8 |
| 20260905181003 | 73 | 288 | 0.9 | 5.2 | 0.00 | 0.01 | 0.01 | 82 | 1018.8 |
| 20260905180004 | 73 | 238 | 0.9 | 2.6 | 0.00 | 0.01 | 0.01 | 82 | 1018.8 |
| 20260905174004 | 71 | 251 | 2.6 | 2.6 | 0.00 | 0.01 | 0.01 | 85 | 1018.8 |
| 20260905173004 | 71 | 151 | 1.7 | 5.2 | 0.00 | 0.01 | 0.01 | 85 | 1018.8 |
| 20260905172004 | 70 | 172 | 2.6 | 6.1 | 0.00 | 0.01 | 0.01 | 87 | 1019.1 |
| 20260905170004 | 69 | 134 | 0.9 | 5.2 | 0.00 | 0.01 | 0.01 | 89 | 1019.1 |
| 20260905165004 | 68 | 161 | 1.7 | 5.2 | 0.00 | 0.01 | 0.01 | 90 | 1019.1 |
| 20260905164005 | 68 | 278 | 0.9 | 2.6 | 0.00 | 0.01 | 0.01 | 91 | 1019.3 |
| 20260905163003 | 67 | 121 | 0.0 | 2.6 | 0.00 | 0.01 | 0.01 | 91 | 1019.3 |